Weather History for Pensacola, FL

Change the Weather History Date:

Tuesday, September 10, 2013

  Actual Average Record
Temperature  
Mean Temperature 83 °F 80 °F  
Max Temperature 89 °F 88 °F 98 °F (1980)
Min Temperature 77 °F 72 °F 61 °F (1956)
Cooling Degree Days 18 15  
Month to date cooling degree days 178 155  
Year to date cooling degree days 2160 2122  
Growing Degree Days 33 (Base 50)    
Moisture  
Dew Point 72 °F    
Average Humidity 69    
Maximum Humidity 85    
Minimum Humidity 52    
Precipitation  
Precipitation 0.00 in 0.20 in 6.64 in (1944)
Month to date precipitation 1.02 2.00  
Year to date precipitation 57.47 46.77  
Sea Level Pressure  
Sea Level Pressure 30.09 in    
Wind  
Wind Speed 6 mph (East)    
Max Wind Speed 17 mph    
Max Gust Speed 21 mph    
Visibility 10 miles    
Events      
T = Trace of Precipitation, MM = Missing Value Source: NWS Daily Summary

Daily Weather History Graph

Daily Weather History Graph

Search for Another Location

Airport:

Trip Planner

Search our weather history database for the weather conditions in past years. The results will help you decide how hot, cold, wet, or windy it might be!

Date:

Astronomy

Sep. 10, 2013 Rise Set
Actual Time 6:30 AM CDT 7:00 PM CDT
Civil Twilight 6:06 AM CDT 7:24 PM CDT
Nautical Twilight 5:37 AM CDT 7:52 PM CDT
Astronomical Twilight 5:09 AM CDT 8:21 PM CDT
Moon 11:31 AM CDT (9/10) 10:28 PM CDT (9/10)
Length of Visible Light 13h 18m
Length of Day
12h 29m
Waxing Crescent, 28% of the Moon is Illuminated
Sep 10
Waxing Crescent
Sep 12
First Quarter
Sep 19
Full
Sep 26
Last Quarter
Oct 4
New

Hourly Weather History & Observations

Time (CDT) Temp. Heat Index Dew Point Humidity Pressure Visibility Wind Dir Wind Speed Gust Speed Precip Events Conditions
12:53 AM 79.0 °F - 72.0 °F 79% 30.04 in 10.0 mi ENE 4.6 mph - N/A   Scattered Clouds
1:53 AM 80.1 °F 83.8 °F 72.0 °F 76% 30.04 in 10.0 mi North 3.5 mph - N/A   Clear
2:53 AM 79.0 °F - 72.0 °F 79% 30.04 in 10.0 mi Calm Calm - N/A   Overcast
3:53 AM 79.0 °F - 73.0 °F 82% 30.04 in 10.0 mi North 3.5 mph - N/A   Overcast
4:53 AM 79.0 °F - 72.0 °F 79% 30.06 in 10.0 mi Calm Calm - N/A   Overcast
5:53 AM 78.1 °F - 72.0 °F 81% 30.07 in 10.0 mi NNE 4.6 mph - N/A   Overcast
6:53 AM 77.0 °F - 70.0 °F 79% 30.09 in 10.0 mi NE 4.6 mph - 0.01 in   Partly Cloudy
7:53 AM 79.0 °F - 71.1 °F 77% 30.11 in 9.0 mi ENE 4.6 mph - N/A   Partly Cloudy
8:53 AM 82.0 °F 86.7 °F 72.0 °F 71% 30.12 in 10.0 mi East 5.8 mph - N/A   Clear
9:53 AM 86.0 °F 92.2 °F 72.0 °F 63% 30.13 in 10.0 mi Variable 6.9 mph - N/A   Clear
10:53 AM 87.1 °F 93.6 °F 72.0 °F 61% 30.14 in 10.0 mi Variable 5.8 mph - N/A   Clear
11:53 AM 88.0 °F 97.5 °F 75.0 °F 65% 30.12 in 10.0 mi ESE 12.7 mph - N/A   Partly Cloudy
12:53 PM 88.0 °F 94.7 °F 72.0 °F 59% 30.12 in 10.0 mi ESE 15.0 mph - 0.00 in   Scattered Clouds
1:53 PM 89.1 °F 96.0 °F 72.0 °F 57% 30.10 in 10.0 mi SE 11.5 mph 20.7 mph N/A   Clear
2:53 PM 89.1 °F 93.7 °F 69.1 °F 52% 30.09 in 10.0 mi North - - N/A   Clear
3:53 PM 89.1 °F 93.7 °F 69.1 °F 52% 30.07 in 10.0 mi SE 11.5 mph - N/A   Clear
4:53 PM 87.1 °F 92.0 °F 70.0 °F 57% 30.06 in 10.0 mi SSE 9.2 mph - N/A   Partly Cloudy
5:53 PM 86.0 °F 90.7 °F 70.0 °F 59% 30.06 in 10.0 mi North - - N/A   Clear
6:53 PM 82.9 °F 87.0 °F 70.0 °F 65% 30.08 in 10.0 mi North - - N/A   Clear
7:53 PM 82.0 °F 85.9 °F 70.0 °F 67% 30.09 in 10.0 mi SE 3.5 mph - N/A   Partly Cloudy
8:53 PM 82.9 °F 87.5 °F 71.1 °F 67% 30.11 in 10.0 mi North - - N/A   Overcast
9:53 PM 82.0 °F 86.7 °F 72.0 °F 71% 30.12 in 10.0 mi ESE 6.9 mph - N/A   Scattered Clouds
10:53 PM 79.0 °F - 73.0 °F 82% 30.12 in 10.0 mi ENE 3.5 mph - N/A   Clear
11:53 PM 78.1 °F - 73.0 °F 84% 30.11 in 10.0 mi North - - N/A   Clear